Météo par heure à Kyslytsya

Ce jour, 24 Juillet, Samedi

Heure Température Précipitation Vent Pression Humidité
00:00 +20°C° 0 mm 2 m/s 761 mmHg 59%
01:00 +19°C° 0 mm 2 m/s 761 mmHg 60%
02:00 +19°C° 0 mm 2 m/s 761 mmHg 61%
03:00 +19°C° 0 mm 2 m/s 761 mmHg 62%
04:00 +19°C° 0 mm 2 m/s 761 mmHg 63%
05:00 +19°C° 0 mm 2 m/s 761 mmHg 64%
06:00 +21°C° 0 mm 2 m/s 761 mmHg 59%
07:00 +24°C° 0 mm 2 m/s 761 mmHg 53%
08:00 +26°C° 0 mm 2 m/s 761 mmHg 48%
09:00 +27°C° 0 mm 2 m/s 761 mmHg 44%
10:00 +28°C° 0 mm 3 m/s 761 mmHg 40%
11:00 +29°C° 0 mm 3 m/s 761 mmHg 36%
12:00 +30°C° 0 mm 3 m/s 761 mmHg 34%
13:00 +30°C° 0 mm 3 m/s 760 mmHg 33%
14:00 +31°C° 0 mm 3 m/s 760 mmHg 31%
15:00 +31°C° 0 mm 3 m/s 760 mmHg 34%
16:00 +30°C° 0 mm 3 m/s 760 mmHg 36%
17:00 +29°C° 0 mm 3 m/s 761 mmHg 38%
18:00 +28°C° 0 mm 3 m/s 761 mmHg 45%
19:00 +26°C° 0 mm 3 m/s 761 mmHg 51%
20:00 +24°C° 0 mm 2 m/s 762 mmHg 57%
21:00 +23°C° 0 mm 2 m/s 762 mmHg 59%
22:00 +22°C° 0 mm 1 m/s 762 mmHg 60%
23:00 +22°C° 0 mm 1 m/s 762 mmHg 62%

Demain, 25 Juillet, Dimanche

Heure Température Précipitation Vent Pression Humidité
00:00 +21°C° 0 mm 1 m/s 762 mmHg 62%
01:00 +20°C° 0 mm 2 m/s 762 mmHg 62%
02:00 +20°C° 0 mm 2 m/s 762 mmHg 62%
03:00 +20°C° 0 mm 2 m/s 762 mmHg 64%
04:00 +19°C° 0 mm 2 m/s 762 mmHg 66%
05:00 +19°C° 0 mm 2 m/s 762 mmHg 69%
06:00 +21°C° 0 mm 2 m/s 762 mmHg 61%
07:00 +25°C° 0 mm 2 m/s 763 mmHg 54%
08:00 +27°C° 0 mm 2 m/s 763 mmHg 47%
09:00 +29°C° 0 mm 2 m/s 763 mmHg 42%
10:00 +30°C° 0 mm 3 m/s 763 mmHg 37%
11:00 +33°C° 0 mm 3 m/s 763 mmHg 32%
12:00 +33°C° 0 mm 3 m/s 762 mmHg 31%
13:00 +33°C° 0 mm 4 m/s 762 mmHg 30%
14:00 +34°C° 0 mm 5 m/s 762 mmHg 29%
15:00 +33°C° 0 mm 5 m/s 762 mmHg 31%
16:00 +32°C° 0 mm 5 m/s 762 mmHg 32%
17:00 +32°C° 0 mm 5 m/s 762 mmHg 34%
18:00 +29°C° 0 mm 4 m/s 763 mmHg 39%
19:00 +27°C° 0 mm 3 m/s 763 mmHg 45%
20:00 +25°C° 0 mm 2 m/s 763 mmHg 50%
21:00 +24°C° 0 mm 1 m/s 763 mmHg 50%
22:00 +24°C° 0 mm 1 m/s 763 mmHg 51%
23:00 +21°C° 0 mm 0 m/s 763 mmHg 51%

Après-demain, 26 Juillet, Lundi

Heure Température Précipitation Vent Pression Humidité
00:00 +23°C° 0 mm 1 m/s 763 mmHg 52%
01:00 +22°C° 0 mm 1 m/s 763 mmHg 53%
02:00 +21°C° 0 mm 2 m/s 764 mmHg 53%
03:00 +21°C° 0 mm 2 m/s 764 mmHg 55%
04:00 +20°C° 0 mm 2 m/s 763 mmHg 56%
05:00 +20°C° 0 mm 2 m/s 763 mmHg 58%
06:00 +23°C° 0 mm 2 m/s 764 mmHg 53%
07:00 +26°C° 0 mm 2 m/s 764 mmHg 48%
08:00 +28°C° 0 mm 2 m/s 764 mmHg 44%
09:00 +30°C° 0 mm 2 m/s 764 mmHg 39%
10:00 +31°C° 0 mm 2 m/s 764 mmHg 35%
11:00 +34°C° 0 mm 2 m/s 763 mmHg 31%
12:00 +35°C° 0 mm 2 m/s 763 mmHg 30%
13:00 +35°C° 0 mm 3 m/s 763 mmHg 28%
14:00 +36°C° 0 mm 3 m/s 763 mmHg 27%
15:00 +35°C° 0 mm 3 m/s 763 mmHg 28%
16:00 +34°C° 0 mm 3 m/s 763 mmHg 30%
17:00 +34°C° 0 mm 3 m/s 763 mmHg 31%
18:00 +31°C° 0 mm 3 m/s 763 mmHg 38%
19:00 +28°C° 0 mm 3 m/s 763 mmHg 45%
20:00 +26°C° 0 mm 2 m/s 763 mmHg 52%
21:00 +25°C° 0 mm 2 m/s 763 mmHg 54%
22:00 +25°C° 0 mm 2 m/s 763 mmHg 55%
23:00 +24°C° 0 mm 1 m/s 763 mmHg 56%

27 Juillet, Mardi

Heure Température Précipitation Vent Pression Humidité
00:00 +24°C° 0 mm 1 m/s 764 mmHg 56%
01:00 +21°C° 0 mm 0 m/s 764 mmHg 56%
02:00 +21°C° 0 mm 0 m/s 764 mmHg 56%
03:00 +21°C° 0 mm 0 m/s 764 mmHg 56%
04:00 +21°C° 0 mm 0 m/s 764 mmHg 56%
05:00 +20°C° 0 mm 0 m/s 764 mmHg 56%
06:00 +23°C° 0 mm 0 m/s 764 mmHg 51%
07:00 +27°C° 0 mm 1 m/s 764 mmHg 45%
08:00 +29°C° 0 mm 1 m/s 764 mmHg 40%
09:00 +31°C° 0 mm 1 m/s 764 mmHg 36%
10:00 +32°C° 0 mm 1 m/s 764 mmHg 32%
11:00 +35°C° 0 mm 2 m/s 764 mmHg 27%
12:00 +36°C° 0 mm 2 m/s 763 mmHg 27%
13:00 +36°C° 0 mm 3 m/s 763 mmHg 26%
14:00 +37°C° 0 mm 3 m/s 763 mmHg 26%
15:00 +36°C° 0 mm 3 m/s 763 mmHg 27%
16:00 +36°C° 0 mm 4 m/s 763 mmHg 29%
17:00 +35°C° 0 mm 4 m/s 763 mmHg 31%
18:00 +33°C° 0 mm 4 m/s 763 mmHg 39%
19:00 +29°C° 0 mm 4 m/s 763 mmHg 47%
20:00 +27°C° 0 mm 3 m/s 763 mmHg 55%
21:00 +26°C° 0 mm 3 m/s 763 mmHg 58%
22:00 +25°C° 0 mm 3 m/s 763 mmHg 61%
23:00 +25°C° 0 mm 3 m/s 763 mmHg 64%

28 Juillet, Mercredi

Heure Température Précipitation Vent Pression Humidité
00:00 +25°C° 0 mm 2 m/s 763 mmHg 65%
01:00 +24°C° 0 mm 2 m/s 763 mmHg 65%
02:00 +24°C° 0 mm 2 m/s 763 mmHg 66%
03:00 +24°C° 0 mm 2 m/s 763 mmHg 66%
04:00 +24°C° 0 mm 2 m/s 763 mmHg 66%
05:00 +23°C° 0 mm 2 m/s 763 mmHg 67%
06:00 +26°C° 0 mm 3 m/s 763 mmHg 59%
07:00 +28°C° 0 mm 3 m/s 763 mmHg 51%
08:00 +32°C° 0 mm 4 m/s 763 mmHg 43%
09:00 +33°C° 0 mm 4 m/s 762 mmHg 38%
10:00 +35°C° 0 mm 5 m/s 762 mmHg 34%
11:00 +36°C° 0 mm 5 m/s 762 mmHg 29%
12:00 +37°C° 0 mm 5 m/s 762 mmHg 29%
13:00 +38°C° 0 mm 6 m/s 761 mmHg 29%
14:00 +38°C° 0 mm 6 m/s 761 mmHg 29%
15:00 +36°C° 0 mm 7 m/s 761 mmHg 32%
16:00 +35°C° 0 mm 7 m/s 761 mmHg 36%
17:00 +34°C° 0 mm 7 m/s 761 mmHg 39%
18:00 +32°C° 0 mm 6 m/s 761 mmHg 47%
19:00 +29°C° 0 mm 5 m/s 761 mmHg 54%
20:00 +27°C° 0 mm 4 m/s 762 mmHg 61%
21:00 +27°C° 0 mm 4 m/s 762 mmHg 65%
22:00 +26°C° 0 mm 4 m/s 762 mmHg 68%
23:00 +25°C° 0 mm 3 m/s 761 mmHg 71%

29 Juillet, Jeudi

Heure Température Précipitation Vent Pression Humidité
00:00 +25°C° 0 mm 3 m/s 761 mmHg 72%
01:00 +24°C° 0 mm 3 m/s 761 mmHg 73%
02:00 +24°C° 0 mm 3 m/s 760 mmHg 74%
03:00 +24°C° 0 mm 3 m/s 761 mmHg 74%
04:00 +23°C° 0 mm 2 m/s 761 mmHg 73%
05:00 +23°C° 0 mm 1 m/s 761 mmHg 72%
06:00 +25°C° 0.1 mm 1 m/s 761 mmHg 65%
07:00 +26°C° 0.1 mm 1 m/s 761 mmHg 58%
08:00 +28°C° 0.1 mm 1 m/s 761 mmHg 51%
09:00 +29°C° 0 mm 1 m/s 761 mmHg 47%
10:00 +30°C° 0 mm 2 m/s 761 mmHg 43%
11:00 +31°C° 0 mm 2 m/s 761 mmHg 39%
12:00 +32°C° 0 mm 2 m/s 761 mmHg 37%
13:00 +34°C° 0 mm 2 m/s 761 mmHg 34%
14:00 +35°C° 0 mm 3 m/s 760 mmHg 32%
15:00 +35°C° 0 mm 2 m/s 760 mmHg 33%
16:00 +35°C° 0 mm 2 m/s 760 mmHg 33%
17:00 +35°C° 0 mm 2 m/s 760 mmHg 34%
18:00 +32°C° 0 mm 2 m/s 760 mmHg 41%
19:00 +29°C° 0 mm 3 m/s 760 mmHg 48%
20:00 +27°C° 0 mm 3 m/s 761 mmHg 55%
21:00 +26°C° 0 mm 2 m/s 761 mmHg 58%
22:00 +26°C° 0 mm 2 m/s 761 mmHg 60%
23:00 +25°C° 0 mm 1 m/s 761 mmHg 63%
Voir plus

Nous avons besoin de votre consentement

Meteoprog et ses fournisseurs de services peuvent stocker et accéder à des données personnelles telles que des cookies, des identifiants d'appareils ou d'autres technologies similaires sur votre appareil et traiter ces données pour personnaliser le contenu et les publicités, ainsi que pour fournir des fonctionnalités de médias sociaux et analyser le trafic.

  • Stocker et/ou accéder à des informations sur votre appareil

    Des cookies, des identifiants d'appareils ou d'autres informations peuvent être stockés ou accessibles sur votre appareil aux fins indiquées ci-dessus.

  • Annonces et contenus personnalisés, mesure des annonces et des contenus, connaissance de l'audience et développement de produits

    Les annonces et le contenu peuvent être personnalisés en fonction d'un profil. D'autres données peuvent être ajoutées pour mieux personnaliser les annonces et le contenu. Les performances des publicités et du contenu peuvent être mesurées. Il est possible d'obtenir des informations sur le public qui a vu les publicités et le contenu. Ces données peuvent être utilisées pour développer ou améliorer l'expérience de l'utilisateur, les systèmes et les logiciels.

En cliquant sur "J'accepte", vous autorisez l'utilisation de cookies, des identifiants d'appareils, des balises web ou d'autres technologies similaires. Vos paramètres peuvent être modifiés dans le navigateur de votre appareil.

Dans certains cas, des intérêts légitimes peuvent être invoqués plutôt qu'un consentement. Vous pouvez en savoir plus à ce sujet dans notre Politique de confidentialité et de cookies.